SP3VKM-10 Weather Reports


time (UTC)temp
C
wind
direction
speed
KPH
gust
KPH
rain 1hr
cm
rain 24hr
cm
rain mn
cm
humidity
%
barometer
mb
20260504081111 26 0.0 0.0 0.00 0.00 0.00 13 1013.8
20260504045110 21 0.0 0.0 0.00 0.00 0.00 42 1013.1
20260504043110 20 0.0 0.0 0.00 0.00 0.00 43 1013.0
20260504041110 20 0.0 0.0 0.00 0.00 0.00 42 1012.9
20260504035110 20 0.0 0.0 0.00 0.00 0.00 39 1012.7
20260504033110 20 0.0 0.0 0.00 0.00 0.00 49 1012.6
20260504025110 20 0.0 0.0 0.00 0.00 0.00 41 1012.5
20260504021110 20 0.0 0.0 0.00 0.00 0.00 35 1012.6
20260504015111 21 0.0 0.0 0.00 0.00 0.00 28 1012.6
20260504013111 21 0.0 0.0 0.00 0.00 0.00 19 1012.6
20260504011110 21 0.0 0.0 0.00 0.00 0.00 13 1012.6
20260504005110 21 0.0 0.0 0.00 0.00 0.00 12 1012.5
20260504003110 22 0.0 0.0 0.00 0.00 0.00 6 1012.3
20260503235110 22 0.0 0.0 0.00 0.00 0.00 5 1012.4
20260503233110 22 0.0 0.0 0.00 0.00 0.00 5 1012.4
20260503225110 22 0.0 0.0 0.00 0.00 0.00 7 1012.4
20260503223110 22 0.0 0.0 0.00 0.00 0.00 1 1012.4
20260503221110 22 0.0 0.0 0.00 0.00 0.00 1 1012.5
20260503215110 22 0.0 0.0 0.00 0.00 0.00 1 1012.6
20260503213110 23 0.0 0.0 0.00 0.00 0.00 1 1012.5
20260503211111 23 0.0 0.0 0.00 0.00 0.00 1 1012.6
20260503205110 23 0.0 0.0 0.00 0.00 0.00 1 1012.7
20260503203111 22 0.0 0.0 0.00 0.00 0.00 1 1012.7
20260503201111 22 0.0 0.0 0.00 0.00 0.00 1 1012.7
20260503195110 22 0.0 0.0 0.00 0.00 0.00 1 1012.8
20260503193110 23 0.0 0.0 0.00 0.00 0.00 1 1012.8
20260503191110 23 0.0 0.0 0.00 0.00 0.00 17 1012.8
20260503185110 23 0.0 0.0 0.00 0.00 0.00 41 1012.8
20260503183110 23 0.0 0.0 0.00 0.00 0.00 1 1012.6
20260503181111 23 0.0 0.0 0.00 0.00 0.00 1 1012.5
20260503175110 23 0.0 0.0 0.00 0.00 0.00 1 1012.4
20260503173110 23 0.0 0.0 0.00 0.00 0.00 1 1012.4
20260503171110 23 0.0 0.0 0.00 0.00 0.00 1 1012.4
20260503131110 24 0.0 0.0 0.00 0.00 0.00 17 1014.2